Regional Weather Roundup
Issued by NWS

Home | Current Version | Previous Version | Text Only | Print | Product List | Glossary On
Versions: 1 2 3 4 5 6 7 8 9 10 11 12 13 14 15 16 17 18 19 20 21 22 23 24 25 26 27 28 29 30 31 32 33 34 35 36 37 38 39 40 41 42 43 44 45 46 47 48 49 50
000
ASUS45 KBOU 010807
RWRCO

WEATHER ROUNDUP FOR COLORADO
NATIONAL WEATHER SERVICE DENVER/BOULDER CO
200 AM MDT FRI JUL 01 2016

NOTE: "FAIR" INDICATES FEW OR NO CLOUDS BELOW 12000 FEET WITH NO
SIGNIFICANT WEATHER AND/OR OBSTRUCTIONS TO VISIBILITY.

COZ001>005-013-030-031-010900-
...NORTHWEST COLORADO...

CITY           SKY/WX    TMP DP  RH WIND       PRES   REMARKS
CRAIG          LGT RAIN  60  56  86 NE3       30.23F
HAYDEN         MOCLDY    57  52  82 CALM      30.24F
MEEKER         CLOUDY    59  54  83 NE8       30.23F
MOUNT WERNER   NOT AVBL
STEAMBOAT SPGS MOCLDY    55  54  94 E3        30.26F
WALDEN         CLOUDY    50  48  93 E5        30.34F
$$

COZ006>008-011-010900-
...WEST CENTRAL VALLEYS...

CITY           SKY/WX    TMP DP  RH WIND       PRES   REMARKS
GRAND JUNCTION LGT RAIN  61  60  97 S6        30.15F
MONTROSE       CLOUDY    64  54  69 SE9       30.24F
EAGLE          CLOUDY    63  63 100 SE6       30.30F
RIFLE          LGT RAIN  60  56  86 CALM      30.22F
DELTA          CLOUDY    67  59  75 SW3       30.20R
NUCLA          NOT AVBL
$$

COZ017>023-064>068-010900-
...SOUTHWEST COLORADO...

CITY           SKY/WX    TMP DP  RH WIND       PRES   REMARKS
DURANGO        CLOUDY    64  52  64 SW5       30.26S
CORTEZ         CLOUDY    65  54  67 CALM      30.19F
PAGOSA SPRINGS CLOUDY    57  56  95 CALM      30.34S
TELLURIDE      CLOUDY    51  51  98 CALM      30.43S
WOLF CREEK PAS CLOUDY    43  43 100 SW15      30.61F
$$

COZ009-010-012-014-032>034-037-058>063-010900-
...CENTRAL COLORADO...

CITY           SKY/WX    TMP DP  RH WIND       PRES   REMARKS
ASPEN          CLOUDY    56  53  90 N5        30.34F
BUENA VISTA    CLOUDY    57  53  85 CALM      30.36F
COPPER MTN     DRIZZLE   48  41  76 S17       30.58F
BERTHOUD PASS  CLOUDY    37  27  65 SE3       30.61F
COTTONWOOD PAS CLOUDY    54  50  87 SE7       30.47F
GUNNISON       MOCLDY    57  50  77 N3        30.33F
KREMMLING      LGT RAIN  55  52  88 SE3       30.32S
LEADVILLE      CLOUDY    49  47  93 CALM      30.45S
MONARCH PASS   FOG       43  43 100 MISG      30.70F VSB<1/4
SALIDA         MOCLDY    60  53  79 SE3       30.41F
SUNLIGHT       DRIZZLE   46  46 100 NE5       30.53F
WILKERSON PASS DRZL/FOG  45  43  93 SW7       30.58F VSB 1/2
$$

COZ069>075-010900-
...SAN LUIS VALLEY/SANGRE DE CRISTO MOUNTAINS...

CITY           SKY/WX    TMP DP  RH WIND       PRES   REMARKS
ALAMOSA        FAIR      55  54  96 CALM      30.32F
LA VETA PASS   FOG       45  45 100 CALM      30.49F VSB<1/4
SAGUACHE       CLOUDY    55  54  94 NE3       30.35F
$$

COZ035-036-038>040-010900-
...NORTHERN COLORADO FRONT RANGE...

CITY           SKY/WX    TMP DP  RH WIND       PRES   REMARKS
DENVER INTL AP LGT RAIN  61  58  90 S9        30.23F
DMNS CITY PARK   N/A     61  60  97 SE1G10    30.21F
AURORA         LGT RAIN  60  60 100 S7        30.24F
FRONT RANGE AP NOT AVBL
ERIE MUNI ARPT LGT RAIN  62  58  85 CALM      30.21F
BOULDER MUN AP CLOUDY    63  59  88 E3        30.21F
CENTENNIAL     LGT RAIN  60  57  89 S7        30.24F
BROOMFIELD     LGT RAIN  61  59  94 SW3       30.24F
LONGMONT       MOCLDY    64  59  83 CALM      30.22F
$$

COZ041-046-047-076>085-087-088-010900-
...PIKES PEAK/PALMER DIVIDE AND SOUTHERN FOOTHILLS...

CITY           SKY/WX    TMP DP  RH WIND       PRES   REMARKS
COLO. SPRINGS  LGT RAIN  60  57  89 CALM      30.30F FOG
A. F. ACADEMY  CLOUDY    58  58  99 SW2       30.30F
SCHRIEVER AFB  NOT AVBL
ELLICOTT       CLOUDY   N/A N/A N/A SE7       30.28S
FALCON         NOT AVBL
FORT CARSON    NOT AVBL
LIMON          CLOUDY    60  59  96 S9        30.25R
MONUMENT HILL  LGT RAIN  54  54 100 S5        30.33F
TRINIDAD       CLOUDY    62  58  86 W7        30.27F
$$

COZ042>045-048>051-090-091-010900-
...NORTHEAST COLORADO...

CITY           SKY/WX    TMP DP  RH WIND       PRES   REMARKS
GREELEY ARPT     N/A    N/A N/A N/A MISG        N/A
AKRON          CLOUDY    61  59  93 SE13      30.22S
BURLINGTON     CLOUDY    63  60  90 E7        30.20F
WRAY           MOCLDY    63  61  94 CALM      30.19R
STERLING       CLOUDY    64  61  88 S6        30.19S
HOLYOKE          N/A     63  59  88 SE6       30.19F
FORT MORGAN    CLOUDY    63  59  88 SE6       30.22S
$$

COZ086-089-092>099-010900-
...SOUTHEAST COLORADO...

CITY           SKY/WX    TMP DP  RH WIND       PRES   REMARKS
PUEBLO         CLOUDY    67  60  78 E5        30.21F
LA JUNTA       CLOUDY    66  61  84 SE15G23   30.18S
LAMAR          LGT RAIN  65  63  93 E15       30.14F
SPRINGFIELD      N/A     64  63  96 NE9       30.18R
$$



USA.gov is the U.S. government's official web portal to all federal, state and local government web resources and services.